| time (UTC) | temp F | wind direction | speed MPH | gust MPH | rain 1hr in | rain 24hr in | rain mn in | humidity % | barometer mb |
| 20260903162801 | 77 | 196 | 2.0 | 3.0 | 0.00 | 0.17 | 0.17 | 90 | 1013.1 |
| 20260903162257 | 78 | 240 | 2.0 | 2.0 | 0.00 | 0.17 | 0.17 | 88 | 1012.8 |
| 20260903161753 | 78 | 105 | 1.0 | 2.0 | 0.00 | 0.17 | 0.17 | 87 | 1013.1 |
| 20260903161248 | 76 | 116 | 0.0 | 1.0 | 0.00 | 0.17 | 0.17 | 90 | 1013.1 |
| 20260903160744 | 76 | 202 | 4.0 | 4.0 | 0.00 | 0.17 | 0.17 | 91 | 1013.2 |
| 20260903160243 | 75 | 224 | 1.0 | 2.0 | 0.00 | 0.17 | 0.17 | 92 | 1013.4 |
| 20260903155741 | 75 | 319 | 2.0 | 2.0 | 0.00 | 0.17 | 0.17 | 91 | 1013.4 |
| 20260903155237 | 73 | 203 | 2.0 | 2.0 | 0.00 | 0.17 | 0.17 | 95 | 1013.3 |
| 20260903154732 | 73 | 186 | 1.0 | 2.0 | 0.00 | 0.17 | 0.17 | 96 | 1013.8 |
| 20260903154228 | 72 | 162 | 0.0 | 1.0 | 0.00 | 0.17 | 0.17 | 95 | 1013.5 |
| 20260903153723 | 72 | 181 | 0.0 | 0.0 | 0.00 | 0.17 | 0.17 | 97 | 1013.6 |
| 20260903153219 | 72 | 196 | 2.0 | 2.0 | 0.00 | 0.17 | 0.17 | 97 | 1013.6 |
| 20260903152715 | 71 | 182 | 0.0 | 1.0 | 0.00 | 0.17 | 0.17 | 98 | 1013.6 |
| 20260903152212 | 71 | 177 | 0.0 | 1.0 | 0.00 | 0.17 | 0.17 | 99 | 1013.7 |
| 20260903151711 | 71 | 177 | 0.0 | 0.0 | 0.00 | 0.17 | 0.17 | 99 | 1013.6 |
| 20260903151206 | 71 | 178 | 2.0 | 2.0 | 0.00 | 0.17 | 0.17 | 99 | 1013.8 |
| 20260903150701 | 72 | 174 | 0.0 | 0.0 | 0.00 | 0.17 | 0.17 | 99 | 1013.9 |
| 20260903150155 | 71 | 180 | 1.0 | 1.0 | 0.00 | 0.17 | 0.17 | 98 | 1014.0 |
| 20260903145650 | 71 | 194 | 0.0 | 1.0 | 0.00 | 0.17 | 0.17 | 99 | 1013.9 |
| 20260903145145 | 71 | 210 | 2.0 | 2.0 | 0.00 | 0.17 | 0.17 | 99 | 1013.9 |
| 20260903144643 | 71 | 193 | 2.0 | 2.0 | 0.00 | 0.17 | 0.17 | 99 | 1013.8 |
| 20260903144140 | 71 | 207 | 2.0 | 2.0 | 0.00 | 0.17 | 0.17 | 99 | 1014.1 |
| 20260903143636 | 71 | 189 | 1.0 | 2.0 | 0.00 | 0.17 | 0.17 | 99 | 1013.9 |
| 20260903143131 | 71 | 177 | 2.0 | 2.0 | 0.00 | 0.17 | 0.17 | 99 | 1013.9 |
| 20260903142627 | 71 | 194 | 2.0 | 2.0 | 0.00 | 0.17 | 0.17 | 99 | 1013.8 |
| 20260903142123 | 70 | 193 | 2.0 | 2.0 | 0.00 | 0.17 | 0.17 | 99 | 1013.8 |
| 20260903141619 | 70 | 190 | 1.0 | 2.0 | 0.00 | 0.17 | 0.17 | 99 | 1013.8 |
| 20260903141114 | 69 | 185 | 0.0 | 0.0 | 0.00 | 0.17 | 0.17 | 99 | 1013.7 |
| 20260903140610 | 69 | 188 | 1.0 | 1.0 | 0.00 | 0.17 | 0.17 | 99 | 1013.8 |
| 20260903140105 | 68 | 170 | 1.0 | 1.0 | 0.00 | 0.17 | 0.17 | 99 | 1013.6 |
| 20260903135601 | 68 | 171 | 0.0 | 1.0 | 0.00 | 0.17 | 0.17 | 99 | 1013.7 |
| 20260903135101 | 67 | 171 | 0.0 | 1.0 | 0.00 | 0.17 | 0.17 | 99 | 1013.6 |
| 20260903134559 | 67 | 171 | 1.0 | 1.0 | 0.00 | 0.17 | 0.17 | 99 | 1013.4 |
| 20260903134055 | 67 | 171 | 0.0 | 1.0 | 0.00 | 0.17 | 0.17 | 99 | 1013.6 |
| 20260903133553 | 67 | 171 | 1.0 | 1.0 | 0.00 | 0.17 | 0.17 | 99 | 1013.5 |
| 20260903133049 | 67 | 170 | 1.0 | 1.0 | 0.00 | 0.17 | 0.17 | 99 | 1013.3 |
| 20260903132543 | 68 | 170 | 0.0 | 1.0 | 0.00 | 0.17 | 0.17 | 99 | 1013.2 |
| 20260903132038 | 67 | 170 | 0.0 | 1.0 | 0.00 | 0.17 | 0.17 | 99 | 1013.5 |
| 20260903131533 | 66 | 170 | 1.0 | 1.0 | 0.00 | 0.17 | 0.17 | 99 | 1013.5 |
| 20260903131032 | 66 | 170 | 1.0 | 1.0 | 0.00 | 0.17 | 0.17 | 99 | 1013.4 |
| 20260903130526 | 66 | 169 | 1.0 | 1.0 | 0.00 | 0.17 | 0.17 | 99 | 1013.6 |
| 20260903130021 | 66 | 170 | 1.0 | 1.0 | 0.00 | 0.17 | 0.17 | 99 | 1013.4 |
| 20260903125520 | 66 | 169 | 1.0 | 1.0 | 0.00 | 0.17 | 0.17 | 99 | 1013.4 |
| 20260903125015 | 66 | 169 | 0.0 | 0.0 | 0.00 | 0.17 | 0.17 | 99 | 1013.7 |
| 20260903124509 | 65 | 169 | 0.0 | 0.0 | 0.00 | 0.17 | 0.17 | 99 | 1013.5 |
| 20260903124008 | 65 | 169 | 0.0 | 0.0 | 0.00 | 0.17 | 0.17 | 99 | 1013.5 |
| 20260903123504 | 65 | 169 | 0.0 | 0.0 | 0.00 | 0.17 | 0.17 | 99 | 1013.4 |
| 20260903123002 | 65 | 169 | 0.0 | 0.0 | 0.00 | 0.17 | 0.17 | 99 | 1013.3 |
| 20260903122502 | 65 | 169 | 0.0 | 0.0 | 0.00 | 0.17 | 0.17 | 99 | 1013.3 |
| 20260903121955 | 65 | 169 | 0.0 | 0.0 | 0.00 | 0.17 | 0.17 | 99 | 1013.3 |
| 20260903121450 | 65 | 169 | 0.0 | 0.0 | 0.00 | 0.17 | 0.17 | 99 | 1013.3 |
| 20260903120947 | 65 | 169 | 1.0 | 1.0 | 0.00 | 0.17 | 0.17 | 99 | 1013.2 |
| 20260903120445 | 64 | 169 | 0.0 | 0.0 | 0.00 | 0.17 | 0.17 | 99 | 1013.1 |
| 20260903115944 | 64 | 169 | 0.0 | 0.0 | 0.00 | 0.17 | 0.17 | 99 | 1013.4 |
| 20260903115444 | 64 | 114 | 1.0 | 1.0 | 0.00 | 0.17 | 0.17 | 99 | 1013.3 |
| 20260903114939 | 64 | 114 | 0.0 | 0.0 | 0.00 | 0.17 | 0.17 | 99 | 1013.3 |
| 20260903114434 | 64 | 114 | 0.0 | 0.0 | 0.00 | 0.17 | 0.17 | 99 | 1013.6 |
| 20260903113930 | 64 | 114 | 0.0 | 0.0 | 0.00 | 0.17 | 0.17 | 99 | 1013.5 |
| 20260903113426 | 64 | 114 | 0.0 | 0.0 | 0.00 | 0.17 | 0.17 | 99 | 1013.5 |
| 20260903112921 | 64 | 114 | 0.0 | 0.0 | 0.00 | 0.17 | 0.17 | 99 | 1013.4 |
| 20260903112416 | 63 | 114 | 0.0 | 1.0 | 0.00 | 0.17 | 0.17 | 99 | 1013.7 |
| 20260903111916 | 63 | 114 | 0.0 | 0.0 | 0.00 | 0.17 | 0.17 | 99 | 1013.5 |
| 20260903111415 | 63 | 114 | 1.0 | 1.0 | 0.00 | 0.17 | 0.17 | 99 | 1013.7 |
| 20260903110911 | 63 | 114 | 0.0 | 0.0 | 0.00 | 0.17 | 0.17 | 99 | 1013.8 |
| 20260903110407 | 63 | 114 | 0.0 | 0.0 | 0.00 | 0.17 | 0.17 | 99 | 1013.8 |
| 20260903105901 | 63 | 113 | 0.0 | 0.0 | 0.00 | 0.17 | 0.17 | 99 | 1013.7 |
| 20260903105357 | 63 | 113 | 0.0 | 0.0 | 0.00 | 0.17 | 0.17 | 99 | 1014.1 |
| 20260903104856 | 63 | 113 | 0.0 | 1.0 | 0.00 | 0.17 | 0.17 | 99 | 1014.0 |
| 20260903104351 | 63 | 113 | 1.0 | 1.0 | 0.00 | 0.17 | 0.17 | 99 | 1014.0 |
| 20260903103848 | 63 | 113 | 0.0 | 0.0 | 0.00 | 0.17 | 0.17 | 99 | 1014.1 |
| 20260903103344 | 63 | 113 | 0.0 | 0.0 | 0.00 | 0.17 | 0.17 | 99 | 1014.0 |
| 20260903102839 | 63 | 113 | 0.0 | 0.0 | 0.00 | 0.17 | 0.17 | 99 | 1013.9 |
| 20260903102338 | 63 | 113 | 1.0 | 1.0 | 0.00 | 0.17 | 0.17 | 99 | 1014.1 |
| 20260903101833 | 63 | 113 | 0.0 | 0.0 | 0.00 | 0.17 | 0.17 | 99 | 1014.2 |
| 20260903101328 | 63 | 113 | 0.0 | 0.0 | 0.00 | 0.17 | 0.17 | 99 | 1013.7 |
| 20260903100824 | 63 | 113 | 1.0 | 1.0 | 0.00 | 0.17 | 0.17 | 99 | 1013.6 |
| 20260903100323 | 63 | 113 | 1.0 | 1.0 | 0.00 | 0.17 | 0.17 | 99 | 1013.5 |
| 20260903095815 | 64 | 113 | 1.0 | 1.0 | 0.00 | 0.17 | 0.17 | 99 | 1013.7 |
| 20260903095309 | 63 | 113 | 0.0 | 0.0 | 0.00 | 0.17 | 0.17 | 99 | 1014.2 |
| 20260903094805 | 63 | 113 | 0.0 | 0.0 | 0.00 | 0.17 | 0.17 | 99 | 1013.8 |
| 20260903094259 | 63 | 113 | 0.0 | 0.0 | 0.00 | 0.17 | 0.17 | 99 | 1013.9 |
| 20260903093755 | 63 | 113 | 0.0 | 0.0 | 0.00 | 0.17 | 0.17 | 99 | 1013.9 |
| 20260903093250 | 63 | 113 | 0.0 | 0.0 | 0.00 | 0.17 | 0.17 | 99 | 1013.6 |
| 20260903092750 | 64 | 113 | 0.0 | 0.0 | 0.00 | 0.17 | 0.17 | 99 | 1013.6 |
| 20260903092245 | 63 | 100 | 0.0 | 0.0 | 0.00 | 0.17 | 0.17 | 99 | 1013.8 |
| 20260903091743 | 63 | 99 | 0.0 | 0.0 | 0.00 | 0.17 | 0.17 | 99 | 1013.9 |
| 20260903091232 | 63 | 99 | 0.0 | 0.0 | 0.00 | 0.17 | 0.17 | 99 | 1013.7 |
| 20260903090727 | 63 | 99 | 0.0 | 0.0 | 0.00 | 0.17 | 0.17 | 99 | 1013.8 |
| 20260903090225 | 63 | 99 | 0.0 | 0.0 | 0.00 | 0.17 | 0.17 | 99 | 1013.7 |
| 20260903085720 | 63 | 99 | 0.0 | 0.0 | 0.00 | 0.17 | 0.17 | 99 | 1013.3 |
| 20260903085215 | 63 | 99 | 0.0 | 0.0 | 0.00 | 0.17 | 0.17 | 99 | 1013.8 |
| 20260903084713 | 64 | 99 | 0.0 | 0.0 | 0.00 | 0.17 | 0.17 | 99 | 1013.6 |
| 20260903084208 | 64 | 98 | 0.0 | 0.0 | 0.00 | 0.17 | 0.17 | 99 | 1013.3 |
| 20260903083703 | 64 | 163 | 0.0 | 0.0 | 0.00 | 0.17 | 0.17 | 99 | 1013.3 |
| 20260903083203 | 64 | 163 | 0.0 | 0.0 | 0.00 | 0.17 | 0.17 | 99 | 1013.5 |
| 20260903082657 | 64 | 163 | 1.0 | 1.0 | 0.00 | 0.17 | 0.17 | 99 | 1013.5 |
| 20260903082153 | 64 | 164 | 0.0 | 0.0 | 0.00 | 0.17 | 0.17 | 99 | 1013.5 |
| 20260903081648 | 64 | 184 | 0.0 | 0.0 | 0.00 | 0.17 | 0.17 | 99 | 1013.8 |
| 20260903081144 | 64 | 185 | 0.0 | 0.0 | 0.00 | 0.17 | 0.17 | 99 | 1013.8 |
| 20260903080640 | 64 | 185 | 0.0 | 0.0 | 0.00 | 0.17 | 0.17 | 99 | 1013.6 |
| 20260903080137 | 64 | 175 | 0.0 | 0.0 | 0.00 | 0.17 | 0.17 | 99 | 1013.6 |
| 20260903075631 | 64 | 189 | 0.0 | 0.0 | 0.07 | 0.17 | 0.17 | 99 | 1013.4 |
| 20260903075126 | 64 | 197 | 0.0 | 0.0 | 0.07 | 0.17 | 0.17 | 99 | 1013.3 |
| 20260903074625 | 64 | 182 | 0.0 | 1.0 | 0.07 | 0.17 | 0.17 | 99 | 1013.2 |
| 20260903074120 | 64 | 170 | 1.0 | 1.0 | 0.05 | 0.16 | 0.16 | 99 | 1013.2 |
| 20260903073616 | 64 | 171 | 0.0 | 0.0 | 0.05 | 0.16 | 0.16 | 99 | 1013.4 |
| 20260903073111 | 64 | 206 | 1.0 | 1.0 | 0.07 | 0.15 | 0.15 | 99 | 1013.5 |
| 20260903072607 | 64 | 181 | 0.0 | 0.0 | 0.07 | 0.15 | 0.15 | 99 | 1013.5 |
| 20260903072103 | 64 | 181 | 0.0 | 0.0 | 0.00 | 0.14 | 0.14 | 99 | 1013.8 |
| 20260903071600 | 64 | 181 | 0.0 | 0.0 | 0.00 | 0.14 | 0.14 | 99 | 1013.9 |
| 20260903071059 | 64 | 181 | 0.0 | 0.0 | 0.00 | 0.14 | 0.14 | 99 | 1014.1 |
| 20260903070554 | 64 | 208 | 0.0 | 0.0 | 0.00 | 0.14 | 0.14 | 99 | 1014.2 |
| 20260903070050 | 64 | 208 | 0.0 | 0.0 | 0.00 | 0.14 | 0.14 | 99 | 1013.8 |
| 20260903065548 | 64 | 208 | 1.0 | 1.0 | 0.00 | 0.14 | 0.14 | 99 | 1014.2 |
| 20260903065043 | 64 | 189 | 0.0 | 0.0 | 0.00 | 0.14 | 0.14 | 99 | 1014.2 |
| 20260903064543 | 64 | 189 | 0.0 | 1.0 | 0.00 | 0.14 | 0.14 | 99 | 1014.4 |
| 20260903064038 | 64 | 189 | 1.0 | 1.0 | 0.00 | 0.14 | 0.14 | 99 | 1014.2 |
| 20260903063533 | 64 | 189 | 0.0 | 0.0 | 0.00 | 0.14 | 0.14 | 99 | 1014.5 |
| 20260903063029 | 64 | 189 | 0.0 | 0.0 | 0.00 | 0.14 | 0.14 | 99 | 1014.3 |
| 20260903062524 | 64 | 189 | 0.0 | 0.0 | 0.00 | 0.14 | 0.14 | 99 | 1014.4 |
| 20260903062020 | 64 | 189 | 0.0 | 0.0 | 0.00 | 0.14 | 0.14 | 99 | 1014.3 |
| 20260903061515 | 64 | 189 | 0.0 | 1.0 | 0.00 | 0.14 | 0.14 | 99 | 1014.4 |
| 20260903061009 | 64 | 198 | 1.0 | 1.0 | 0.00 | 0.14 | 0.14 | 99 | 1014.1 |
| 20260903060503 | 64 | 198 | 0.0 | 0.0 | 0.05 | 0.14 | 0.14 | 99 | 1014.1 |
| 20260903060004 | 64 | 204 | 0.0 | 0.0 | 0.05 | 0.14 | 0.14 | 99 | 1014.3 |
| 20260903055501 | 64 | 189 | 0.0 | 1.0 | 0.00 | 0.13 | 0.13 | 99 | 1014.1 |
| 20260903055000 | 64 | 200 | 0.0 | 1.0 | 0.00 | 0.13 | 0.13 | 99 | 1014.3 |
| 20260903054455 | 64 | 200 | 0.0 | 0.0 | 0.00 | 0.13 | 0.13 | 99 | 1014.7 |
| 20260903053951 | 64 | 201 | 0.0 | 0.0 | 0.00 | 0.13 | 0.13 | 99 | 1014.9 |
| 20260903053450 | 64 | 198 | 0.0 | 1.0 | 0.00 | 0.13 | 0.13 | 99 | 1015.0 |
| 20260903052948 | 64 | 202 | 0.0 | 0.0 | 0.07 | 0.13 | 0.13 | 99 | 1015.3 |
| 20260903052443 | 64 | 196 | 1.0 | 1.0 | 0.07 | 0.13 | 0.13 | 99 | 1015.7 |
| 20260903051939 | 64 | 196 | 1.0 | 1.0 | 0.00 | 0.12 | 0.12 | 99 | 1016.0 |
| 20260903051433 | 64 | 195 | 0.0 | 0.0 | 0.05 | 0.12 | 0.12 | 99 | 1016.0 |
| 20260903050929 | 64 | 188 | 0.0 | 0.0 | 0.05 | 0.12 | 0.12 | 99 | 1015.8 |
| 20260903050428 | 64 | 188 | 0.0 | 0.0 | 0.07 | 0.11 | 0.11 | 99 | 1016.2 |
| 20260903045928 | 64 | 188 | 0.0 | 0.0 | 0.12 | 0.11 | 0.11 | 99 | 1015.8 |
| 20260903045423 | 64 | 188 | 1.0 | 1.0 | 0.12 | 0.10 | 0.10 | 99 | 1015.8 |
| 20260903044920 | 64 | 132 | 0.0 | 1.0 | 0.07 | 0.09 | 0.09 | 99 | 1015.7 |
| 20260903044415 | 64 | 106 | 0.0 | 0.0 | 0.05 | 0.08 | 0.08 | 99 | 1015.4 |
| 20260903043912 | 64 | 106 | 0.0 | 0.0 | 0.05 | 0.08 | 0.08 | 99 | 1015.5 |
| 20260903043407 | 64 | 105 | 1.0 | 1.0 | 0.07 | 0.07 | 0.07 | 99 | 1015.6 |
| 20260903042905 | 64 | 105 | 0.0 | 1.0 | 0.19 | 0.07 | 0.07 | 99 | 1015.5 |
| 20260903042401 | 64 | 119 | 0.0 | 0.0 | 0.19 | 0.06 | 0.06 | 99 | 1016.0 |
| 20260903041856 | 64 | 117 | 1.0 | 1.0 | 0.12 | 0.04 | 0.04 | 99 | 1015.6 |
| 20260903041353 | 64 | 80 | 0.0 | 0.0 | 0.12 | 0.03 | 0.03 | 99 | 1015.6 |
| 20260903040848 | 64 | 174 | 1.0 | 1.0 | 0.19 | 0.02 | 0.02 | 99 | 1016.6 |
| 20260903040347 | 64 | 138 | 1.0 | 1.0 | 0.17 | 0.01 | 0.01 | 99 | 1016.3 |
| 20260903035844 | 64 | 167 | 0.0 | 0.0 | 0.24 | 0.52 | 0.52 | 99 | 1017.0 |
| 20260903035338 | 64 | 169 | 0.0 | 0.0 | 0.24 | 0.51 | 0.51 | 99 | 1017.3 |
| 20260903034834 | 64 | 165 | 0.0 | 0.0 | 0.38 | 0.49 | 0.49 | 99 | 1017.5 |
| 20260903034329 | 64 | 165 | 0.0 | 0.0 | 1.44 | 0.47 | 0.47 | 99 | 1017.6 |
| 20260903033824 | 64 | 165 | 0.0 | 0.0 | 1.84 | 0.43 | 0.43 | 99 | 1018.0 |
| 20260903033319 | 64 | 184 | 0.0 | 1.0 | 1.16 | 0.27 | 0.27 | 99 | 1018.2 |
| 20260903032818 | 64 | 191 | 1.0 | 2.0 | 0.38 | 0.12 | 0.12 | 99 | 1018.4 |
| 20260903032315 | 64 | 121 | 1.0 | 1.0 | 0.12 | 0.08 | 0.08 | 99 | 1017.1 |
| 20260903031810 | 64 | 125 | 0.0 | 0.0 | 0.00 | 0.06 | 0.06 | 99 | 1017.1 |
| 20260903031309 | 64 | 230 | 0.0 | 0.0 | 0.00 | 0.06 | 0.06 | 99 | 1017.0 |
| 20260903030805 | 64 | 202 | 1.0 | 1.0 | 0.00 | 0.06 | 0.06 | 99 | 1016.9 |
| 20260903030301 | 64 | 177 | 0.0 | 0.0 | 0.00 | 0.06 | 0.06 | 99 | 1016.7 |
| 20260903025756 | 64 | 135 | 1.0 | 1.0 | 0.00 | 0.06 | 0.06 | 99 | 1016.8 |
| 20260903025252 | 64 | 201 | 0.0 | 0.0 | 0.00 | 0.06 | 0.06 | 99 | 1016.6 |
| 20260903024746 | 64 | 217 | 0.0 | 0.0 | 0.00 | 0.06 | 0.06 | 99 | 1016.4 |
| 20260903024245 | 64 | 304 | 2.0 | 2.0 | 0.00 | 0.06 | 0.06 | 99 | 1016.5 |
| 20260903023741 | 64 | 194 | 0.0 | 0.0 | 0.00 | 0.06 | 0.06 | 99 | 1016.4 |
| 20260903023237 | 64 | 213 | 0.0 | 0.0 | 0.00 | 0.06 | 0.06 | 99 | 1016.8 |
| 20260903022737 | 64 | 194 | 2.0 | 2.0 | 0.00 | 0.06 | 0.06 | 99 | 1016.9 |
| 20260903022236 | 64 | 184 | 0.0 | 2.0 | 0.00 | 0.06 | 0.06 | 99 | 1016.8 |
| 20260903021730 | 64 | 183 | 0.0 | 0.0 | 0.00 | 0.06 | 0.06 | 99 | 1016.8 |
| 20260903021226 | 64 | 183 | 0.0 | 1.0 | 0.00 | 0.06 | 0.06 | 99 | 1016.9 |
| 20260903020725 | 64 | 183 | 0.0 | 0.0 | 0.00 | 0.06 | 0.06 | 99 | 1016.8 |
| 20260903020220 | 64 | 182 | 0.0 | 0.0 | 0.00 | 0.06 | 0.06 | 99 | 1016.8 |
| 20260903015715 | 64 | 143 | 1.0 | 1.0 | 0.00 | 0.06 | 0.06 | 99 | 1017.1 |
| 20260903015211 | 64 | 189 | 1.0 | 1.0 | 0.00 | 0.06 | 0.06 | 99 | 1017.4 |
| 20260903014706 | 64 | 151 | 0.0 | 1.0 | 0.00 | 0.06 | 0.06 | 99 | 1017.3 |
| 20260903014200 | 64 | 200 | 2.0 | 2.0 | 0.00 | 0.06 | 0.06 | 99 | 1017.3 |
| 20260903013655 | 64 | 180 | 0.0 | 0.0 | 0.00 | 0.06 | 0.06 | 99 | 1017.3 |
| 20260903013154 | 64 | 188 | 1.0 | 1.0 | 0.00 | 0.06 | 0.06 | 99 | 1017.2 |
| 20260903012653 | 64 | 163 | 0.0 | 0.0 | 0.00 | 0.06 | 0.06 | 99 | 1017.0 |
| 20260903012153 | 64 | 180 | 0.0 | 0.0 | 0.00 | 0.06 | 0.06 | 99 | 1017.0 |
| 20260903011652 | 64 | 187 | 1.0 | 1.0 | 0.00 | 0.06 | 0.06 | 99 | 1017.0 |
| 20260903011146 | 64 | 201 | 1.0 | 1.0 | 0.00 | 0.06 | 0.06 | 99 | 1016.5 |
| 20260903010642 | 64 | 198 | 2.0 | 2.0 | 0.00 | 0.06 | 0.06 | 99 | 1016.2 |
| 20260903010140 | 64 | 208 | 1.0 | 1.0 | 0.00 | 0.06 | 0.06 | 99 | 1016.8 |
| 20260903005635 | 64 | 208 | 0.0 | 0.0 | 0.00 | 0.06 | 0.06 | 99 | 1016.9 |
| 20260903005130 | 63 | 209 | 0.0 | 0.0 | 0.00 | 0.06 | 0.06 | 99 | 1016.9 |
| 20260903004625 | 64 | 44 | 0.0 | 0.0 | 0.05 | 0.06 | 0.06 | 99 | 1016.9 |
| 20260903004120 | 63 | 45 | 0.0 | 1.0 | 0.05 | 0.06 | 0.06 | 99 | 1017.3 |
| 20260903003616 | 63 | 33 | 0.0 | 0.0 | 0.00 | 0.05 | 0.05 | 99 | 1017.2 |
| 20260903003110 | 63 | 32 | 1.0 | 1.0 | 0.00 | 0.05 | 0.05 | 99 | 1017.2 |
| 20260903002600 | 63 | 149 | 1.0 | 1.0 | 0.00 | 0.05 | 0.05 | 99 | 1017.0 |
| 20260903002054 | 63 | 148 | 0.0 | 0.0 | 0.00 | 0.05 | 0.05 | 99 | 1017.0 |
| 20260903001555 | 63 | 148 | 0.0 | 1.0 | 0.00 | 0.05 | 0.05 | 99 | 1017.2 |
| 20260903001049 | 63 | 155 | 1.0 | 1.0 | 0.00 | 0.05 | 0.05 | 99 | 1016.9 |
| 20260903000545 | 64 | 118 | 0.0 | 1.0 | 0.00 | 0.05 | 0.05 | 99 | 1016.9 |
| 20260903000043 | 63 | 118 | 0.0 | 0.0 | 0.00 | 0.05 | 0.05 | 99 | 1016.8 |
| 20260902235537 | 63 | 118 | 0.0 | 0.0 | 0.00 | 0.05 | 0.05 | 99 | 1016.8 |
| 20260902235032 | 63 | 118 | 0.0 | 1.0 | 0.00 | 0.05 | 0.05 | 99 | 1016.9 |
| 20260902234527 | 63 | 118 | 0.0 | 0.0 | 0.00 | 0.05 | 0.05 | 99 | 1016.8 |
| 20260902234025 | 63 | 118 | 0.0 | 1.0 | 0.00 | 0.05 | 0.05 | 99 | 1016.9 |
| 20260902233520 | 64 | 118 | 0.0 | 0.0 | 0.00 | 0.05 | 0.05 | 99 | 1016.7 |
| 20260902233015 | 64 | 116 | 1.0 | 1.0 | 0.00 | 0.05 | 0.05 | 99 | 1016.8 |
| 20260902232514 | 64 | 158 | 0.0 | 0.0 | 0.00 | 0.05 | 0.05 | 99 | 1016.7 |
| 20260902232009 | 63 | 163 | 1.0 | 1.0 | 0.00 | 0.05 | 0.05 | 99 | 1016.7 |
| 20260902231503 | 63 | 140 | 1.0 | 1.0 | 0.00 | 0.05 | 0.05 | 99 | 1016.9 |
| 20260902230958 | 63 | 158 | 0.0 | 0.0 | 0.00 | 0.05 | 0.05 | 99 | 1017.1 |
| 20260902230451 | 63 | 174 | 0.0 | 1.0 | 0.00 | 0.05 | 0.05 | 99 | 1017.1 |
| 20260902225945 | 63 | 174 | 2.0 | 2.0 | 0.00 | 0.05 | 0.05 | 99 | 1016.8 |
| 20260902225440 | 63 | 184 | 1.0 | 2.0 | 0.00 | 0.05 | 0.05 | 99 | 1017.0 |
| 20260902224940 | 63 | 235 | 2.0 | 3.0 | 0.00 | 0.05 | 0.05 | 99 | 1017.3 |
| 20260902224439 | 63 | 197 | 0.0 | 0.0 | 0.00 | 0.05 | 0.05 | 99 | 1017.2 |
| 20260902223936 | 63 | 158 | 1.0 | 1.0 | 0.00 | 0.05 | 0.05 | 99 | 1017.2 |
| 20260902223431 | 64 | 109 | 1.0 | 1.0 | 0.00 | 0.05 | 0.05 | 99 | 1017.3 |
| 20260902222930 | 64 | 141 | 0.0 | 1.0 | 0.00 | 0.05 | 0.05 | 99 | 1017.1 |
| 20260902222429 | 63 | 107 | 0.0 | 0.0 | 0.00 | 0.05 | 0.05 | 99 | 1017.1 |
| 20260902221929 | 64 | 162 | 1.0 | 1.0 | 0.00 | 0.05 | 0.05 | 99 | 1017.3 |
| 20260902221427 | 64 | 137 | 0.0 | 0.0 | 0.00 | 0.05 | 0.05 | 99 | 1017.1 |
| 20260902220924 | 64 | 241 | 0.0 | 0.0 | 0.00 | 0.05 | 0.05 | 99 | 1017.2 |
| 20260902220423 | 64 | 139 | 1.0 | 1.0 | 0.00 | 0.05 | 0.05 | 99 | 1017.0 |
| 20260902215919 | 64 | 60 | 0.0 | 0.0 | 0.00 | 0.05 | 0.05 | 99 | 1017.1 |
| 20260902215414 | 64 | 62 | 0.0 | 0.0 | 0.00 | 0.05 | 0.05 | 99 | 1017.3 |
| 20260902214910 | 64 | 62 | 0.0 | 1.0 | 0.00 | 0.05 | 0.05 | 99 | 1017.2 |
| 20260902214409 | 64 | 16 | 0.0 | 1.0 | 0.00 | 0.05 | 0.05 | 99 | 1017.3 |
| 20260902213903 | 64 | 98 | 0.0 | 0.0 | 0.00 | 0.05 | 0.05 | 99 | 1017.5 |
| 20260902213400 | 64 | 95 | 0.0 | 0.0 | 0.00 | 0.05 | 0.05 | 99 | 1017.1 |
| 20260902212858 | 64 | 40 | 0.0 | 0.0 | 0.00 | 0.05 | 0.05 | 99 | 1017.2 |
| 20260902212354 | 64 | 49 | 0.0 | 1.0 | 0.00 | 0.05 | 0.05 | 99 | 1017.1 |
| 20260902211851 | 64 | 92 | 0.0 | 0.0 | 0.00 | 0.05 | 0.05 | 99 | 1017.2 |
| 20260902211346 | 64 | 192 | 1.0 | 1.0 | 0.00 | 0.05 | 0.05 | 99 | 1017.0 |
| 20260902210841 | 64 | 232 | 0.0 | 1.0 | 0.00 | 0.05 | 0.05 | 99 | 1017.2 |
| 20260902210341 | 64 | 92 | 0.0 | 1.0 | 0.00 | 0.05 | 0.05 | 99 | 1017.3 |
| 20260902205839 | 64 | 100 | 0.0 | 1.0 | 0.00 | 0.05 | 0.05 | 99 | 1017.3 |
| 20260902205334 | 64 | 105 | 0.0 | 1.0 | 0.00 | 0.05 | 0.05 | 99 | 1017.3 |
| 20260902204830 | 64 | 105 | 1.0 | 1.0 | 0.00 | 0.05 | 0.05 | 99 | 1017.5 |
| 20260902204324 | 64 | 105 | 0.0 | 0.0 | 0.00 | 0.05 | 0.05 | 99 | 1017.5 |
| 20260902203820 | 64 | 95 | 0.0 | 1.0 | 0.00 | 0.05 | 0.05 | 99 | 1017.4 |
| 20260902203315 | 64 | 98 | 0.0 | 0.0 | 0.00 | 0.05 | 0.05 | 99 | 1017.7 |
| 20260902202814 | 64 | 102 | 0.0 | 0.0 | 0.00 | 0.05 | 0.05 | 99 | 1017.5 |
| 20260902202310 | 64 | 192 | 0.0 | 1.0 | 0.00 | 0.05 | 0.05 | 99 | 1017.5 |
| 20260902201807 | 64 | 199 | 0.0 | 0.0 | 0.00 | 0.05 | 0.05 | 99 | 1017.5 |
| 20260902201301 | 64 | 100 | 1.0 | 1.0 | 0.00 | 0.05 | 0.05 | 99 | 1017.5 |
| 20260902200756 | 64 | 186 | 0.0 | 0.0 | 0.00 | 0.05 | 0.05 | 99 | 1017.4 |
| 20260902200251 | 64 | 211 | 0.0 | 0.0 | 0.00 | 0.05 | 0.05 | 99 | 1017.5 |
| 20260902195746 | 64 | 76 | 0.0 | 0.0 | 0.00 | 0.05 | 0.05 | 99 | 1017.7 |
| 20260902195246 | 64 | 73 | 1.0 | 2.0 | 0.00 | 0.05 | 0.05 | 99 | 1017.5 |
| 20260902194740 | 64 | 79 | 0.0 | 0.0 | 0.00 | 0.05 | 0.05 | 99 | 1017.4 |
| 20260902194235 | 64 | 76 | 1.0 | 2.0 | 0.00 | 0.05 | 0.05 | 99 | 1017.3 |
| 20260902193731 | 64 | 90 | 1.0 | 1.0 | 0.00 | 0.05 | 0.05 | 99 | 1017.3 |
| 20260902193226 | 64 | 81 | 0.0 | 1.0 | 0.00 | 0.05 | 0.05 | 99 | 1017.4 |
| 20260902192724 | 64 | 68 | 0.0 | 1.0 | 0.00 | 0.05 | 0.05 | 99 | 1017.2 |
| 20260902192219 | 64 | 57 | 1.0 | 2.0 | 0.00 | 0.05 | 0.05 | 99 | 1017.4 |
| 20260902191718 | 63 | 88 | 0.0 | 1.0 | 0.00 | 0.05 | 0.05 | 99 | 1017.5 |
| 20260902191213 | 64 | 153 | 0.0 | 1.0 | 0.00 | 0.05 | 0.05 | 99 | 1017.6 |
| 20260902190708 | 63 | 121 | 1.0 | 2.0 | 0.00 | 0.05 | 0.05 | 99 | 1017.7 |
| 20260902190203 | 63 | 111 | 0.0 | 0.0 | 0.00 | 0.05 | 0.05 | 99 | 1017.8 |
| 20260902185659 | 63 | 107 | 0.0 | 1.0 | 0.00 | 0.05 | 0.05 | 99 | 1018.0 |
| 20260902185154 | 63 | 73 | 0.0 | 1.0 | 0.00 | 0.05 | 0.05 | 99 | 1018.1 |
| 20260902184649 | 63 | 90 | 1.0 | 1.0 | 0.00 | 0.05 | 0.05 | 99 | 1018.2 |
| 20260902184145 | 63 | 162 | 0.0 | 0.0 | 0.00 | 0.05 | 0.05 | 99 | 1018.2 |
| 20260902183641 | 64 | 168 | 1.0 | 1.0 | 0.00 | 0.05 | 0.05 | 99 | 1018.2 |
| 20260902183137 | 63 | 163 | 0.0 | 1.0 | 0.00 | 0.05 | 0.05 | 99 | 1018.5 |
| 20260902182633 | 64 | 140 | 0.0 | 1.0 | 0.00 | 0.05 | 0.05 | 99 | 1018.4 |
| 20260902182130 | 64 | 124 | 0.0 | 0.0 | 0.00 | 0.05 | 0.05 | 99 | 1018.4 |
| 20260902181625 | 63 | 124 | 1.0 | 1.0 | 0.00 | 0.05 | 0.05 | 99 | 1018.9 |
| 20260902181124 | 63 | 124 | 0.0 | 0.0 | 0.00 | 0.05 | 0.05 | 99 | 1018.7 |
| 20260902180619 | 63 | 127 | 0.0 | 0.0 | 0.00 | 0.05 | 0.05 | 99 | 1018.9 |
| 20260902180116 | 63 | 132 | 0.0 | 1.0 | 0.00 | 0.05 | 0.05 | 99 | 1018.7 |
| 20260902175615 | 63 | 83 | 0.0 | 1.0 | 0.00 | 0.05 | 0.05 | 99 | 1018.9 |
| 20260902175110 | 63 | 74 | 0.0 | 1.0 | 0.00 | 0.05 | 0.05 | 99 | 1019.0 |
| 20260902174606 | 64 | 88 | 0.0 | 0.0 | 0.07 | 0.05 | 0.05 | 99 | 1018.6 |
| 20260902174102 | 63 | 90 | 0.0 | 0.0 | 0.07 | 0.05 | 0.05 | 99 | 1018.7 |
| 20260902173556 | 64 | 117 | 1.0 | 1.0 | 0.00 | 0.04 | 0.04 | 99 | 1018.5 |
| 20260902173052 | 64 | 122 | 0.0 | 1.0 | 0.00 | 0.04 | 0.04 | 99 | 1018.6 |
| 20260902172550 | 63 | 122 | 0.0 | 1.0 | 0.05 | 0.04 | 0.04 | 99 | 1018.5 |
| 20260902172045 | 63 | 122 | 0.0 | 0.0 | 0.05 | 0.04 | 0.04 | 99 | 1018.9 |
| 20260902171542 | 63 | 122 | 0.0 | 0.0 | 0.00 | 0.03 | 0.03 | 99 | 1019.2 |
| 20260902171037 | 63 | 121 | 1.0 | 1.0 | 0.00 | 0.03 | 0.03 | 99 | 1018.7 |
| 20260902170531 | 63 | 128 | 0.0 | 0.0 | 0.07 | 0.03 | 0.03 | 99 | 1018.7 |
| 20260902170028 | 63 | 135 | 0.0 | 0.0 | 0.07 | 0.03 | 0.03 | 99 | 1018.5 |
| 20260902165522 | 63 | 135 | 0.0 | 1.0 | 0.00 | 0.02 | 0.02 | 99 | 1018.9 |
| 20260902165021 | 63 | 136 | 1.0 | 1.0 | 0.00 | 0.02 | 0.02 | 99 | 1018.9 |
| 20260902164517 | 64 | 154 | 1.0 | 1.0 | 0.00 | 0.02 | 0.02 | 99 | 1018.7 |
| 20260902164015 | 63 | 154 | 0.0 | 0.0 | 0.00 | 0.02 | 0.02 | 99 | 1018.5 |
| 20260902163511 | 63 | 155 | 0.0 | 0.0 | 0.00 | 0.02 | 0.02 | 99 | 1018.7 |